Location: Spruce Knob
(38.6995°N, 79.5330°W)
Time: 16:08:09
(UTC-05:00)

Hubble Space Telescope - Pass Details

Date: 18 December 2023
Orbit: 516 x 520 km, 28.5° (Epoch: 21 February)

Event Time Altitude Azimuth Distance (km) Brightness Sun altitude
Rises 06:37:48 0° 224° (SW) 2,628 4.1 -10.1°
Reaches altitude 10° 06:40:59 10° 197° (SSW) 1,741 3.4 -9.5°
Maximum altitude 06:43:01 14° 167° (SSE) 1,526 3.6 -9.2°
Drops below altitude 10° 06:45:04 10° 136° (SE) 1,742 4.6 -8.8°
Sets 06:48:15 0° 109° (ESE) 2,629 6.8 -8.2°
